Location: Condor
(52.3263°N, 114.5541°W)
Time: 21:25:12
(UTC+00:00)

Oscar 19 - Pass Details

Date: 15 December 2023
Orbit: 771 x 789 km, 98.9° (Epoch: 04 March)

Event Time Altitude Azimuth Distance (km) Brightness Sun altitude
Rises 14:52:52 0° 5° (N) 3,282 13.6 -7.0°
Reaches altitude 10° 14:56:37 10° 337° (NNW) 2,353 12.7 -6.5°
Maximum altitude 14:58:39 12° 314° (NW) 2,189 12.3 -6.2°
Drops below altitude 10° 15:00:40 10° 290° (WNW) 2,352 12.5 -6.0°
Sets 15:04:26 0° 262° (W) 3,280 13.4 -5.5°
